EW8494 Weather Reports


Display with metric or nautical units.
time (UTC)temp
F
wind
direction
speed
MPH
gust
MPH
rain 1hr
in
rain 24hr
in
rain mn
in
humidity
%
barometer
mb
20260831172519 69 45 2.0 4.0 0.00 0.00 0.00 42 1013.4
20260831171519 68 23 3.0 7.0 0.00 0.00 0.00 41 1013.6
20260831170519 67 23 3.0 8.0 0.00 0.00 0.00 42 1013.5
20260831165519 67 23 2.0 4.0 0.00 0.00 0.00 44 1013.7
20260831164538 66 23 4.0 9.0 0.00 0.00 0.00 42 1013.8
20260831163518 65 23 2.0 5.0 0.00 0.00 0.00 45 1013.7
20260831162519 64 23 3.0 8.0 0.00 0.00 0.00 44 1013.8
20260831161539 64 23 4.0 9.0 0.00 0.00 0.00 43 1013.9
20260831160519 63 23 3.0 7.0 0.00 0.00 0.00 46 1014.0
20260831155518 62 0 2.0 6.0 0.00 0.00 0.00 45 1013.9
20260831154518 61 23 2.0 5.0 0.00 0.00 0.00 47 1014.0
20260831153518 61 0 2.0 4.0 0.00 0.00 0.00 47 1014.1
20260831152519 60 0.0 1.0 0.00 0.00 0.00 46 1014.2
20260831151518 59 0.0 1.0 0.00 0.00 0.00 45 1014.2
20260831150520 59 0.0 0.0 0.00 0.00 0.00 48 1014.1
20260831145519 58 0.0 2.0 0.00 0.00 0.00 48 1014.0
20260831144559 56 90 3.0 6.0 0.00 0.00 0.00 50 1013.7
20260831143518 53 0.0 0.0 0.00 0.00 0.00 57 1013.7
20260831142521 52 0.0 2.0 0.00 0.00 0.00 59 1013.5
20260831141539 50 0 1.0 5.0 0.00 0.00 0.00 63 1013.2
20260831140518 49 0 1.0 3.0 0.00 0.00 0.00 64 1013.3
20260831135518 49 0 1.0 4.0 0.00 0.00 0.00 65 1013.4
20260831134520 49 0 3.0 5.0 0.00 0.00 0.00 64 1013.4
20260831133520 49 0 4.0 6.0 0.00 0.00 0.00 64 1013.3
20260831132520 49 0 5.0 7.0 0.00 0.00 0.00 64 1013.4
20260831131518 49 23 1.0 4.0 0.00 0.00 0.00 64 1013.4
20260831130520 49 0.0 1.0 0.00 0.00 0.00 64 1013.4
20260831125538 50 0.0 0.0 0.00 0.00 0.00 64 1013.4
20260831124620 49 0.0 0.0 0.00 0.00 0.00 65 1013.5
20260831123520 50 0.0 0.0 0.00 0.00 0.00 65 1013.6
20260831122520 50 23 1.0 3.0 0.00 0.00 0.00 64 1013.5
20260831121520 50 0.0 2.0 0.00 0.00 0.00 63 1013.3
20260831120520 51 0.0 2.0 0.00 0.00 0.00 63 1013.5
20260831115520 51 45 1.0 2.0 0.00 0.00 0.00 63 1013.4
20260831114520 51 23 1.0 3.0 0.00 0.00 0.00 64 1013.3
20260831113520 51 23 1.0 3.0 0.00 0.00 0.00 65 1013.4
20260831112521 51 0.0 0.0 0.00 0.00 0.00 65 1013.4
20260831111520 52 0.0 0.0 0.00 0.00 0.00 63 1013.5
20260831110520 54 0.0 0.0 0.00 0.00 0.00 62 1013.6
20260831105600 55 0.0 0.0 0.00 0.00 0.00 61 1013.5
20260831104519 55 0.0 0.0 0.00 0.00 0.00 59 1013.5
20260831103520 56 0.0 0.0 0.00 0.00 0.00 56 1013.6
20260831102520 56 0.0 0.0 0.00 0.00 0.00 56 1013.5
20260831101540 56 0.0 0.0 0.00 0.00 0.00 54 1013.4
20260831100520 57 0.0 0.0 0.00 0.00 0.00 54 1013.5
20260831095540 57 0.0 0.0 0.00 0.00 0.00 54 1013.6
20260831094520 57 0.0 0.0 0.00 0.00 0.00 55 1013.7
20260831093520 57 0.0 0.0 0.00 0.00 0.00 54 1013.7
20260831092600 57 0.0 0.0 0.00 0.00 0.00 55 1013.8
20260831091519 56 0.0 0.0 0.00 0.00 0.00 55 1013.9
20260831090540 56 0.0 0.0 0.00 0.00 0.00 56 1013.9
20260831085539 56 0.0 2.0 0.00 0.00 0.00 57 1014.0
20260831084520 57 0.0 0.0 0.00 0.00 0.00 55 1014.1
20260831083520 57 0.0 0.0 0.00 0.00 0.00 56 1014.0
20260831082520 57 0.0 1.0 0.00 0.00 0.00 56 1014.0
20260831081520 57 0.0 0.0 0.00 0.00 0.00 56 1014.0
20260831080519 57 0.0 0.0 0.00 0.00 0.00 56 1013.9
20260831075519 57 0.0 0.0 0.00 0.00 0.00 54 1014.0
20260831074519 58 0.0 2.0 0.00 0.00 0.00 53 1014.0
20260831073520 57 0.0 2.0 0.00 0.00 0.00 53 1014.1
20260831072520 57 0.0 0.0 0.00 0.00 0.00 54 1014.1
20260831071519 57 0.0 3.0 0.00 0.00 0.00 54 1014.0
20260831070520 57 270 1.0 3.0 0.00 0.00 0.00 54 1013.9
20260831065520 58 0.0 2.0 0.00 0.00 0.00 52 1013.9
20260831064519 59 0.0 0.0 0.00 0.00 0.00 50 1013.9
20260831063519 60 0.0 1.0 0.00 0.00 0.00 48 1013.9
20260831062519 60 0.0 2.0 0.00 0.00 0.00 48 1013.8
20260831061520 60 0.0 1.0 0.00 0.00 0.00 48 1013.9
20260831060520 59 0.0 0.0 0.00 0.00 0.00 49 1013.8
20260831055520 59 0.0 0.0 0.00 0.00 0.00 50 1013.9
20260831054539 60 0.0 0.0 0.00 0.00 0.00 50 1013.9
20260831053520 60 0.0 0.0 0.00 0.00 0.00 49 1014.0
20260831052539 60 0.0 0.0 0.00 0.00 0.00 48 1013.8
20260831051519 61 0.0 1.0 0.00 0.00 0.00 48 1014.0
20260831050539 61 0.0 0.0 0.00 0.00 0.00 46 1013.9
20260831045520 63 0.0 0.0 0.00 0.00 0.00 44 1014.0
20260831044539 64 0.0 1.0 0.00 0.00 0.00 40 1014.1
20260831043519 64 0.0 2.0 0.00 0.00 0.00 40 1013.9
20260831042520 63 0.0 0.0 0.00 0.00 0.00 42 1013.9
20260831041519 64 0.0 0.0 0.00 0.00 0.00 43 1014.0
20260831040519 64 0.0 0.0 0.00 0.00 0.00 42 1014.0
20260831035519 63 0.0 1.0 0.00 0.00 0.00 43 1014.0
20260831034519 63 0.0 0.0 0.00 0.00 0.00 44 1013.9
20260831033519 63 0.0 0.0 0.00 0.00 0.00 45 1013.9
20260831032519 64 0.0 0.0 0.00 0.00 0.00 45 1013.8
20260831031539 65 0.0 0.0 0.00 0.00 0.00 44 1013.6
20260831030519 65 0.0 0.0 0.00 0.00 0.00 43 1013.5
20260831025519 65 0.0 1.0 0.00 0.00 0.00 43 1013.4
20260831024559 65 0.0 0.0 0.00 0.00 0.00 45 1013.3
20260831023519 67 0.0 0.0 0.00 0.00 0.00 43 1013.4
20260831022519 69 0.0 0.0 0.00 0.00 0.00 42 1013.5
20260831021539 69 0.0 0.0 0.00 0.00 0.00 40 1013.6
20260831020519 71 0.0 0.0 0.00 0.00 0.00 37 1013.5
20260831015519 72 0.0 0.0 0.00 0.00 0.00 36 1013.6
20260831014519 73 0.0 0.0 0.00 0.00 0.00 33 1013.6
20260831013519 74 68 1.0 2.0 0.00 0.00 0.00 29 1013.6
20260831012519 76 68 1.0 3.0 0.00 0.00 0.00 29 1013.6
20260831011519 76 68 1.0 3.0 0.00 0.00 0.00 29 1013.7
20260831010519 76 90 3.0 6.0 0.00 0.00 0.00 27 1013.7
20260831005519 76 90 2.0 6.0 0.00 0.00 0.00 25 1013.8
20260831004519 76 90 4.0 8.0 0.00 0.00 0.00 26 1013.7
20260831003519 77 90 2.0 8.0 0.00 0.00 0.00 25 1013.9
20260831002519 77 90 1.0 7.0 0.00 0.00 0.00 24 1014.0
20260831001518 77 113 1.0 4.0 0.00 0.00 0.00 24 1014.0
20260831000519 77 113 1.0 4.0 0.00 0.00 0.00 24 1014.1
20260830235539 77 90 2.0 6.0 0.00 0.00 0.00 25 1014.2
20260830234539 77 90 1.0 4.0 0.00 0.00 0.00 27 1014.4
20260830233519 77 90 2.0 6.0 0.00 0.00 0.00 26 1014.4
20260830232519 76 0.0 2.0 0.00 0.00 0.00 24 1014.6
20260830231519 76 180 1.0 4.0 0.00 0.00 0.00 22 1014.6
20260830230519 76 225 1.0 4.0 0.00 0.00 0.00 22 1014.6
20260830225519 76 225 1.0 3.0 0.00 0.00 0.00 21 1014.7
20260830224518 76 0.0 2.0 0.00 0.00 0.00 22 1014.8
20260830223519 75 225 1.0 3.0 0.00 0.00 0.00 22 1014.9
20260830222539 75 180 1.0 4.0 0.00 0.00 0.00 24 1015.0
20260830221519 75 135 1.0 5.0 0.00 0.00 0.00 22 1015.1
20260830220518 75 203 1.0 3.0 0.00 0.00 0.00 23 1015.4
20260830215518 75 225 1.0 5.0 0.00 0.00 0.00 24 1015.4
20260830214519 74 225 2.0 6.0 0.00 0.00 0.00 25 1015.7
20260830213519 73 158 1.0 3.0 0.00 0.00 0.00 26 1015.9
20260830212518 73 248 2.0 6.0 0.00 0.00 0.00 26 1015.9
20260830211518 73 158 1.0 4.0 0.00 0.00 0.00 29 1015.9
20260830210520 72 180 1.0 3.0 0.00 0.00 0.00 28 1015.9
20260830205539 73 158 2.0 5.0 0.00 0.00 0.00 28 1016.0
20260830204540 73 225 4.0 8.0 0.00 0.00 0.00 30 1016.0
20260830203519 72 158 2.0 7.0 0.00 0.00 0.00 30 1016.0
20260830202519 72 203 1.0 4.0 0.00 0.00 0.00 31 1016.1
20260830201538 71 180 1.0 4.0 0.00 0.00 0.00 33 1016.2
20260830200520 70 203 2.0 6.0 0.00 0.00 0.00 32 1016.3
20260830195519 70 225 1.0 7.0 0.00 0.00 0.00 33 1016.3
20260830194518 70 203 1.0 6.0 0.00 0.00 0.00 35 1016.6
20260830193539 70 225 2.0 6.0 0.00 0.00 0.00 35 1016.8
20260830192520 69 180 2.0 6.0 0.00 0.00 0.00 35 1016.9
20260830191520 68 180 2.0 5.0 0.00 0.00 0.00 35 1017.0
20260830190520 68 225 4.0 13.0 0.00 0.00 0.00 36 1016.9
20260830185518 68 225 4.0 11.0 0.00 0.00 0.00 37 1017.0
20260830184520 68 180 2.0 5.0 0.00 0.00 0.00 37 1017.1
20260830183541 68 203 1.0 5.0 0.00 0.00 0.00 38 1017.1
20260830182520 67 225 2.0 6.0 0.00 0.00 0.00 39 1017.3
20260830181518 66 203 1.0 5.0 0.00 0.00 0.00 39 1017.3
20260830180520 66 180 2.0 6.0 0.00 0.00 0.00 41 1017.3
20260830175520 66 203 2.0 7.0 0.00 0.00 0.00 40 1017.5
20260830174518 66 180 2.0 4.0 0.00 0.00 0.00 41 1017.3
20260830173540 66 180 2.0 5.0 0.00 0.00 0.00 41 1017.3